Location: Unspecified
(0.0000°N, 0.0000°E)
Time: 13:52:39
(UTC+00:00)

STARLINK-34853 - Pass Details

Date: 22 February 2026
Orbit: 474 x 476 km, 53.2° (Epoch: 14 March)

Event Time Altitude Azimuth Distance (km) Brightness Sun altitude
Rises 18:33:45 0° 198° (SSW) 2,519 6.4 -5.0°
Reaches altitude 10° 18:36:05 10° 187° (S) 1,637 5.3 -5.6°
Maximum altitude 18:39:22 30° 124° (SE) 875 3.3 -6.4°
Drops below altitude 10° 18:42:37 10° 62° (ENE) 1,629 4.4 -7.2°
Enters shadow 18:43:09 - 58° (ENE) 1,823 4.7 -7.3°
